EDW752X LSZH-LICA

Flight info

Callsign EDW752X
Flight time 1h 43m
Altitude 37000
Route DEGES Y170 ARGAX DCT RESIA DCT ATPED DCT MOGPU DCT EVINO M620 ARBUM
Aircraft A320/M-SDE2E3FGHIJ1RWXY/LB1

Departure

Time 2026-05-06 12:40
Airport Zürich Airport (LSZH)

Arrival

Time 2026-05-06 14:23
Airport Lamezia Terme Sant'Eufemia International Airport (LICA)
Time Latitude Longitude Altitude Speed Heading
2026-05-06 11:47 47.45163 8.55879 1414 ft 0 kts 186°
2026-05-06 12:29 47.45167 8.55880 1379 ft 3 kts 185°
2026-05-06 12:29 47.45194 8.55881 1407 ft 4 kts 181°
2026-05-06 12:29 47.45217 8.55887 1409 ft 2 kts 209°
2026-05-06 12:30 47.45237 8.55908 1416 ft 4 kts 230°
2026-05-06 12:30 47.45249 8.55941 1416 ft 4 kts 269°
2026-05-06 12:30 47.45249 8.55952 1413 ft 1 kts 276°
2026-05-06 12:33 47.45252 8.55913 1413 ft 8 kts 276°
2026-05-06 12:33 47.45258 8.55821 1407 ft 8 kts 276°
2026-05-06 12:33 47.45264 8.55739 1407 ft 9 kts 276°
2026-05-06 12:33 47.45273 8.55618 1413 ft 12 kts 276°
2026-05-06 12:34 47.45328 8.55542 1409 ft 12 kts 335°
2026-05-06 12:34 47.45419 8.55479 1412 ft 17 kts 335°
2026-05-06 12:34 47.45528 8.55403 1410 ft 18 kts 335°
2026-05-06 12:34 47.45631 8.55334 1402 ft 11 kts 341°
2026-05-06 12:35 47.45670 8.55388 1403 ft 9 kts 84°
2026-05-06 12:35 47.45664 8.55495 1402 ft 12 kts 96°
2026-05-06 12:35 47.45654 8.55640 1404 ft 16 kts 96°
2026-05-06 12:35 47.45644 8.55784 1407 ft 15 kts 96°
2026-05-06 12:36 47.45632 8.55946 1416 ft 16 kts 96°
2026-05-06 12:36 47.45619 8.56134 1411 ft 19 kts 96°
2026-05-06 12:36 47.45606 8.56312 1413 ft 15 kts 96°
2026-05-06 12:36 47.45593 8.56487 1414 ft 19 kts 96°
2026-05-06 12:37 47.45583 8.56649 1418 ft 13 kts 95°
2026-05-06 12:37 47.45573 8.56779 1422 ft 16 kts 96°
2026-05-06 12:37 47.45563 8.56921 1420 ft 12 kts 96°
2026-05-06 12:37 47.45579 8.57004 1422 ft 5 kts 46°
2026-05-06 12:38 47.45628 8.57024 1425 ft 10 kts
2026-05-06 12:38 47.45665 8.57028 1425 ft 1 kts
2026-05-06 12:38 47.45666 8.57025 1425 ft 1 kts 334°
2026-05-06 12:38 47.45666 8.57015 1425 ft 2 kts 274°
2026-05-06 12:39 47.45667 8.56996 1424 ft 0 kts 275°
2026-05-06 12:39 47.45668 8.56977 1424 ft 16 kts 275°
2026-05-06 12:39 47.45706 8.56411 1418 ft 90 kts 276°
2026-05-06 12:39 47.45791 8.55188 1407 ft 147 kts 276°
2026-05-06 12:40 47.45908 8.53585 1867 ft 155 kts 274°
2026-05-06 12:40 47.46021 8.52002 2603 ft 154 kts 273°
2026-05-06 12:40 47.46134 8.50458 3300 ft 151 kts 274°
2026-05-06 12:40 47.46516 8.49006 3832 ft 159 kts 315°
2026-05-06 12:41 47.47572 8.48534 4289 ft 171 kts
2026-05-06 12:41 47.48669 8.49308 4709 ft 190 kts 43°
2026-05-06 12:41 47.49338 8.51101 4941 ft 213 kts 81°
2026-05-06 12:41 47.49288 8.53367 5201 ft 233 kts 100°
2026-05-06 12:42 47.48981 8.55868 5409 ft 260 kts 102°
2026-05-06 12:42 47.48634 8.58608 5816 ft 281 kts 102°
2026-05-06 12:42 47.48272 8.61491 6543 ft 287 kts 102°
2026-05-06 12:42 47.47923 8.64425 7355 ft 292 kts 102°
2026-05-06 12:43 47.47581 8.67401 8195 ft 295 kts 102°
2026-05-06 12:43 47.47237 8.70411 9054 ft 299 kts 102°
2026-05-06 12:43 47.46882 8.73468 9816 ft 306 kts 102°
2026-05-06 12:43 47.46507 8.76652 10274 ft 326 kts 102°
2026-05-06 12:44 47.46099 8.80059 10719 ft 347 kts 102°
2026-05-06 12:44 47.45656 8.83605 11504 ft 352 kts 106°
2026-05-06 12:44 47.44740 8.86936 12344 ft 349 kts 126°
2026-05-06 12:44 47.43758 8.88790 12900 ft 344 kts 138°
2026-05-06 12:45 47.41899 8.90985 13708 ft 342 kts 147°
2026-05-06 12:45 47.39964 8.93037 14409 ft 344 kts 147°
2026-05-06 12:45 47.36039 8.97152 15689 ft 349 kts 147°
2026-05-06 12:46 47.34055 8.99234 16339 ft 351 kts 147°
2026-05-06 12:46 47.32062 9.01336 16987 ft 354 kts 147°
2026-05-06 12:46 47.30056 9.03459 17657 ft 356 kts 147°
2026-05-06 12:46 47.28038 9.05600 18302 ft 359 kts 147°
2026-05-06 12:47 47.26004 9.07756 18860 ft 361 kts 147°
2026-05-06 12:47 47.23954 9.09922 19405 ft 364 kts 147°
2026-05-06 12:47 47.21887 9.12101 19913 ft 367 kts 148°
2026-05-06 12:47 47.19797 9.14299 20389 ft 372 kts 148°
2026-05-06 12:48 47.17681 9.16516 20928 ft 375 kts 148°
2026-05-06 12:48 47.15546 9.18751 21484 ft 378 kts 149°
2026-05-06 12:48 47.13395 9.21004 22044 ft 381 kts 149°
2026-05-06 12:48 47.11228 9.23277 22591 ft 384 kts 149°
2026-05-06 12:49 47.09052 9.25556 23145 ft 386 kts 149°
2026-05-06 12:49 47.06858 9.27852 23625 ft 389 kts 149°
2026-05-06 12:49 47.04676 9.30233 24031 ft 394 kts 144°
2026-05-06 12:49 47.02624 9.32933 24411 ft 398 kts 143°
2026-05-06 12:50 47.00565 9.35657 24815 ft 400 kts 143°
2026-05-06 12:50 46.98495 9.38392 25203 ft 402 kts 143°
2026-05-06 12:50 46.96441 9.41101 25595 ft 404 kts 144°
2026-05-06 12:50 46.94345 9.43858 25899 ft 407 kts 144°
2026-05-06 12:51 46.92207 9.46673 26246 ft 410 kts 145°
2026-05-06 12:51 46.90109 9.49432 26610 ft 412 kts 145°
2026-05-06 12:51 46.87944 9.52272 26989 ft 413 kts 146°
2026-05-06 12:51 46.85826 9.55048 27331 ft 416 kts 146°
2026-05-06 12:52 46.83665 9.57875 27703 ft 418 kts 146°
2026-05-06 12:52 46.81489 9.60717 28080 ft 421 kts 146°
2026-05-06 12:52 46.79306 9.63568 28473 ft 423 kts 146°
2026-05-06 12:52 46.77082 9.66470 28822 ft 424 kts 147°
2026-05-06 12:53 46.74906 9.69303 29179 ft 426 kts 147°
2026-05-06 12:53 46.72691 9.72187 29512 ft 428 kts 147°
2026-05-06 12:53 46.70464 9.75085 29870 ft 430 kts 147°
2026-05-06 12:53 46.68224 9.77991 30075 ft 432 kts 147°
2026-05-06 12:54 46.65972 9.80910 30276 ft 435 kts 147°
2026-05-06 12:54 46.63706 9.83848 30534 ft 437 kts 147°
2026-05-06 12:54 46.61432 9.86794 30787 ft 438 kts 147°
2026-05-06 12:54 46.59148 9.89748 30996 ft 440 kts 147°
2026-05-06 12:55 46.56859 9.92709 31312 ft 440 kts 147°
2026-05-06 12:55 46.54578 9.95665 31573 ft 439 kts 147°
2026-05-06 12:55 46.52306 9.98604 31868 ft 437 kts 148°
2026-05-06 12:55 46.50037 10.01526 32162 ft 435 kts 148°
2026-05-06 12:56 46.47771 10.04432 32460 ft 434 kts 148°
2026-05-06 12:56 46.45492 10.07282 32777 ft 431 kts 149°
2026-05-06 12:56 46.43190 10.10061 33022 ft 430 kts 150°
2026-05-06 12:56 46.40878 10.12793 33354 ft 428 kts 151°
2026-05-06 12:57 46.38569 10.15507 33666 ft 427 kts 151°
2026-05-06 12:57 46.36268 10.18219 33955 ft 426 kts 151°
2026-05-06 12:57 46.33973 10.20936 34181 ft 427 kts 150°
2026-05-06 12:57 46.31676 10.23667 34429 ft 428 kts 150°
2026-05-06 12:58 46.29375 10.26406 34641 ft 429 kts 150°
2026-05-06 12:58 46.27072 10.29155 34863 ft 430 kts 150°
2026-05-06 12:58 46.24763 10.31907 35082 ft 431 kts 149°
2026-05-06 12:58 46.22448 10.34663 35277 ft 432 kts 149°
2026-05-06 12:59 46.20129 10.37423 35461 ft 433 kts 149°
2026-05-06 12:59 46.17809 10.40183 35662 ft 434 kts 149°
2026-05-06 12:59 46.15443 10.42857 35825 ft 428 kts 154°
2026-05-06 12:59 46.12900 10.45012 36025 ft 422 kts 159°
2026-05-06 13:00 46.10312 10.47025 36192 ft 423 kts 159°
2026-05-06 13:00 46.07753 10.49019 36361 ft 424 kts 159°
2026-05-06 13:00 46.05156 10.51049 36509 ft 425 kts 159°
2026-05-06 13:00 46.02520 10.53110 36678 ft 426 kts 159°
2026-05-06 13:01 45.99915 10.55150 36848 ft 427 kts 159°
2026-05-06 13:01 45.94719 10.59204 36892 ft 429 kts 159°
2026-05-06 13:02 45.89422 10.63308 36897 ft 436 kts 159°
2026-05-06 13:02 45.84019 10.67488 36898 ft 441 kts 159°
2026-05-06 13:03 45.78647 10.71648 36886 ft 444 kts 158°
2026-05-06 13:03 45.73204 10.75852 36911 ft 445 kts 158°
2026-05-06 13:04 45.67753 10.80052 36891 ft 445 kts 158°
2026-05-06 13:04 45.62306 10.84245 36908 ft 444 kts 159°
2026-05-06 13:05 45.56856 10.88418 36904 ft 444 kts 159°
2026-05-06 13:05 45.51400 10.92580 36907 ft 445 kts 159°
2026-05-06 13:06 45.45942 10.96745 36885 ft 445 kts 158°
2026-05-06 13:06 45.40494 11.00908 36895 ft 444 kts 159°
2026-05-06 13:07 45.35042 11.05059 36910 ft 444 kts 159°
2026-05-06 13:07 45.29592 11.09200 36911 ft 444 kts 159°
2026-05-06 13:08 45.24175 11.13296 36910 ft 444 kts 159°
2026-05-06 13:08 45.18720 11.17411 36894 ft 444 kts 159°
2026-05-06 13:09 45.13257 11.21520 36898 ft 444 kts 159°
2026-05-06 13:09 45.07794 11.25624 36904 ft 445 kts 159°
2026-05-06 13:10 45.02323 11.29729 36909 ft 445 kts 159°
2026-05-06 13:10 44.96846 11.33826 36905 ft 445 kts 159°
2026-05-06 13:11 44.91369 11.37919 36912 ft 445 kts 159°
2026-05-06 13:11 44.85891 11.42007 36912 ft 445 kts 159°
2026-05-06 13:12 44.80410 11.46082 36880 ft 445 kts 159°
2026-05-06 13:12 44.74937 11.50150 36898 ft 445 kts 159°
2026-05-06 13:13 44.69467 11.54196 36897 ft 444 kts 159°
2026-05-06 13:13 44.64000 11.58233 36897 ft 444 kts 159°
2026-05-06 13:14 44.58528 11.62264 36899 ft 444 kts 159°
2026-05-06 13:14 44.53054 11.66286 36911 ft 444 kts 159°
2026-05-06 13:15 44.47582 11.70304 36917 ft 444 kts 159°
2026-05-06 13:15 44.42106 11.74312 36896 ft 444 kts 159°
2026-05-06 13:16 44.36622 11.78314 36896 ft 445 kts 159°
2026-05-06 13:16 44.31183 11.82288 36903 ft 445 kts 159°
2026-05-06 13:17 44.25701 11.86286 36934 ft 444 kts 159°
2026-05-06 13:17 44.20216 11.90263 36934 ft 444 kts 159°
2026-05-06 13:18 44.14734 11.94234 36932 ft 444 kts 159°
2026-05-06 13:18 44.09252 11.98204 36932 ft 444 kts 159°
2026-05-06 13:19 44.03766 12.02169 36933 ft 444 kts 159°
2026-05-06 13:19 43.98276 12.06118 36906 ft 445 kts 159°
2026-05-06 13:20 43.92779 12.10061 36889 ft 446 kts 159°
2026-05-06 13:20 43.87267 12.14016 36909 ft 447 kts 159°
2026-05-06 13:21 43.81746 12.17974 36919 ft 447 kts 159°
2026-05-06 13:21 43.76219 12.21924 36902 ft 447 kts 158°
2026-05-06 13:22 43.70722 12.25839 36909 ft 448 kts 159°
2026-05-06 13:22 43.65177 12.29775 36917 ft 448 kts 159°
2026-05-06 13:23 43.59630 12.33713 36935 ft 449 kts 159°
2026-05-06 13:23 43.54090 12.37731 36915 ft 452 kts 156°
2026-05-06 13:24 43.48678 12.42195 36921 ft 455 kts 154°
2026-05-06 13:24 43.43306 12.46801 36944 ft 455 kts 154°
2026-05-06 13:25 43.37896 12.51310 36963 ft 454 kts 155°
2026-05-06 13:25 43.32455 12.55738 36946 ft 454 kts 155°
2026-05-06 13:26 43.27009 12.60151 36967 ft 455 kts 155°
2026-05-06 13:26 43.21571 12.64575 36982 ft 455 kts 155°
2026-05-06 13:27 43.16131 12.69012 36988 ft 455 kts 155°
2026-05-06 13:27 43.10689 12.73435 36973 ft 455 kts 156°
2026-05-06 13:28 43.05249 12.77838 36965 ft 454 kts 156°
2026-05-06 13:28 42.99807 12.82237 36981 ft 454 kts 156°
2026-05-06 13:29 42.94400 12.86604 36988 ft 454 kts 156°
2026-05-06 13:29 42.88950 12.90983 36975 ft 454 kts 156°
2026-05-06 13:30 42.83508 12.95351 36993 ft 454 kts 156°
2026-05-06 13:30 42.78061 12.99720 36996 ft 454 kts 156°
2026-05-06 13:31 42.72615 13.04075 37010 ft 454 kts 156°
2026-05-06 13:31 42.67167 13.08420 36999 ft 454 kts 156°
2026-05-06 13:32 42.61719 13.12763 36997 ft 454 kts 156°
2026-05-06 13:32 42.56267 13.17102 37001 ft 454 kts 156°
2026-05-06 13:33 42.50805 13.21429 37000 ft 455 kts 156°
2026-05-06 13:33 42.45341 13.25762 36982 ft 455 kts 155°
2026-05-06 13:34 42.39879 13.30080 37002 ft 455 kts 156°
2026-05-06 13:34 42.34414 13.34394 37004 ft 455 kts 156°
2026-05-06 13:35 42.28982 13.38673 36997 ft 455 kts 156°
2026-05-06 13:35 42.23508 13.42963 37000 ft 455 kts 156°
2026-05-06 13:36 42.18031 13.47249 36994 ft 455 kts 156°
2026-05-06 13:36 42.12546 13.51531 36973 ft 456 kts 156°
2026-05-06 13:37 42.07058 13.55819 36982 ft 457 kts 156°
2026-05-06 13:37 42.02569 13.59323 36999 ft 457 kts 156°
2026-05-06 13:38 41.97064 13.63600 37007 ft 457 kts 156°
2026-05-06 13:38 41.91561 13.67866 37013 ft 457 kts 156°
2026-05-06 13:39 41.86054 13.72132 37023 ft 457 kts 156°
2026-05-06 13:39 41.80553 13.76394 37020 ft 456 kts 156°
2026-05-06 13:40 41.74162 13.81329 37002 ft 457 kts 156°
2026-05-06 13:40 41.69579 13.84855 37009 ft 457 kts 156°
2026-05-06 13:41 41.64065 13.89089 37004 ft 457 kts 156°
2026-05-06 13:41 41.58548 13.93316 37015 ft 457 kts 156°
2026-05-06 13:42 41.53034 13.97533 36985 ft 458 kts 156°
2026-05-06 13:42 41.47494 14.01761 36984 ft 459 kts 157°
2026-05-06 13:43 41.41939 14.05996 36975 ft 460 kts 157°
2026-05-06 13:43 41.36372 14.10229 37001 ft 461 kts 157°
2026-05-06 13:44 41.30792 14.14471 36990 ft 463 kts 157°
2026-05-06 13:44 41.25191 14.18725 36996 ft 464 kts 157°
2026-05-06 13:45 41.19573 14.22976 36993 ft 465 kts 157°
2026-05-06 13:45 41.11126 14.29334 37012 ft 466 kts 157°
2026-05-06 13:46 41.05481 14.33586 36999 ft 467 kts 157°
2026-05-06 13:46 40.99817 14.37844 37006 ft 469 kts 157°
2026-05-06 13:47 40.94138 14.42098 37011 ft 469 kts 157°
2026-05-06 13:47 40.88448 14.46352 37017 ft 470 kts 157°
2026-05-06 13:48 40.82752 14.50608 36996 ft 471 kts 158°
2026-05-06 13:48 40.77028 14.54861 36994 ft 473 kts 157°
2026-05-06 13:49 40.71295 14.59124 37001 ft 474 kts 157°
2026-05-06 13:49 40.65545 14.63404 37024 ft 475 kts 157°
2026-05-06 13:50 40.59781 14.67676 37016 ft 476 kts 157°
2026-05-06 13:50 40.54042 14.71907 37034 ft 476 kts 157°
2026-05-06 13:51 40.48264 14.76176 37039 ft 476 kts 157°
2026-05-06 13:51 40.42480 14.80437 37041 ft 477 kts 157°
2026-05-06 13:52 40.36685 14.84685 36772 ft 479 kts 157°
2026-05-06 13:52 40.33781 14.86816 36059 ft 476 kts 157°
2026-05-06 13:52 40.30909 14.88929 35349 ft 473 kts 157°
2026-05-06 13:53 40.28049 14.91027 34656 ft 470 kts 157°
2026-05-06 13:53 40.25200 14.93112 33962 ft 469 kts 157°
2026-05-06 13:53 40.22347 14.95194 33200 ft 470 kts 157°
2026-05-06 13:53 40.19481 14.97281 32459 ft 472 kts 157°
2026-05-06 13:54 40.16601 14.99375 31740 ft 475 kts 157°
2026-05-06 13:54 40.13709 15.01479 31033 ft 477 kts 156°
2026-05-06 13:54 40.10808 15.03593 30349 ft 477 kts 156°
2026-05-06 13:54 40.07921 15.05694 29609 ft 473 kts 156°
2026-05-06 13:55 40.05056 15.07777 28840 ft 469 kts 156°
2026-05-06 13:55 40.02219 15.09841 28092 ft 465 kts 155°
2026-05-06 13:55 39.99410 15.11880 27429 ft 459 kts 155°
2026-05-06 13:55 39.96634 15.13890 26793 ft 454 kts 155°
2026-05-06 13:56 39.93887 15.15869 26168 ft 449 kts 155°
2026-05-06 13:56 39.91171 15.17828 25572 ft 444 kts 155°
2026-05-06 13:56 39.88493 15.19765 24959 ft 439 kts 155°
2026-05-06 13:56 39.85839 15.21687 24388 ft 434 kts 155°
2026-05-06 13:57 39.83214 15.23586 23813 ft 429 kts 155°
2026-05-06 13:57 39.80615 15.25461 23179 ft 425 kts 155°
2026-05-06 13:57 39.78073 15.27293 22523 ft 422 kts 155°
2026-05-06 13:57 39.75448 15.29169 21862 ft 436 kts 155°
2026-05-06 13:58 39.72776 15.31065 21218 ft 438 kts 155°
2026-05-06 13:58 39.70252 15.33286 20589 ft 440 kts 143°
2026-05-06 13:58 39.67939 15.35881 20007 ft 438 kts 143°
2026-05-06 13:58 39.65646 15.38460 19410 ft 434 kts 143°
2026-05-06 13:59 39.63366 15.41012 18830 ft 431 kts 143°
2026-05-06 13:59 39.61100 15.43537 18234 ft 428 kts 143°
2026-05-06 13:59 39.58847 15.46036 17573 ft 424 kts 143°
2026-05-06 13:59 39.56617 15.48506 16926 ft 421 kts 143°
2026-05-06 14:00 39.54400 15.50962 16313 ft 418 kts 143°
2026-05-06 14:00 39.52198 15.53396 15692 ft 415 kts 143°
2026-05-06 14:00 39.50013 15.55817 15085 ft 412 kts 142°
2026-05-06 14:00 39.47848 15.58223 14489 ft 409 kts 142°
2026-05-06 14:01 39.45697 15.60608 13904 ft 405 kts 142°
2026-05-06 14:01 39.43563 15.62969 13253 ft 402 kts 142°
2026-05-06 14:01 39.41444 15.65302 12620 ft 398 kts 142°
2026-05-06 14:01 39.39306 15.67534 11973 ft 391 kts 149°
2026-05-06 14:02 39.36968 15.69270 11377 ft 385 kts 154°
2026-05-06 14:02 39.34639 15.70929 10825 ft 379 kts 154°
2026-05-06 14:02 39.32353 15.72553 10385 ft 371 kts 154°
2026-05-06 14:02 39.30125 15.74126 10149 ft 357 kts 155°
2026-05-06 14:03 39.28003 15.75638 10023 ft 341 kts 154°
2026-05-06 14:03 39.25978 15.77097 9908 ft 327 kts 154°
2026-05-06 14:03 39.24023 15.78507 9628 ft 319 kts 154°
2026-05-06 14:03 39.22108 15.79898 9306 ft 313 kts 154°
2026-05-06 14:04 39.20283 15.81221 8921 ft 298 kts 154°
2026-05-06 14:04 39.18505 15.82506 8515 ft 290 kts 154°
2026-05-06 14:04 39.16752 15.83756 8104 ft 286 kts 154°
2026-05-06 14:04 39.15009 15.84988 7712 ft 286 kts 154°
2026-05-06 14:05 39.13266 15.86200 7292 ft 284 kts 154°
2026-05-06 14:05 39.11528 15.87405 6875 ft 283 kts 154°
2026-05-06 14:05 39.09794 15.88588 6480 ft 281 kts 154°
2026-05-06 14:05 39.08076 15.89749 6100 ft 277 kts 154°
2026-05-06 14:06 39.06382 15.90896 5722 ft 273 kts 154°
2026-05-06 14:06 39.04710 15.92022 5347 ft 269 kts 154°
2026-05-06 14:06 39.03058 15.93120 5009 ft 265 kts 154°
2026-05-06 14:06 39.01428 15.94190 4608 ft 262 kts 154°
2026-05-06 14:07 38.99804 15.95236 4245 ft 260 kts 154°
2026-05-06 14:07 38.98182 15.96274 3897 ft 260 kts 154°
2026-05-06 14:07 38.96568 15.97295 3518 ft 255 kts 154°
2026-05-06 14:07 38.95032 15.98259 3080 ft 236 kts 154°
2026-05-06 14:08 38.93715 15.99387 2927 ft 227 kts 131°
2026-05-06 14:08 38.92986 16.01130 2791 ft 218 kts 106°
2026-05-06 14:08 38.92773 16.02993 2724 ft 206 kts 96°
2026-05-06 14:08 38.92622 16.04781 2632 ft 196 kts 97°
2026-05-06 14:09 38.92471 16.06483 2615 ft 190 kts 99°
2026-05-06 14:09 38.92312 16.08138 2321 ft 189 kts 98°
2026-05-06 14:09 38.92152 16.09793 2054 ft 185 kts 98°
2026-05-06 14:09 38.91976 16.11404 1729 ft 181 kts 100°
2026-05-06 14:10 38.91784 16.12938 1557 ft 165 kts 101°
2026-05-06 14:10 38.91611 16.14388 1444 ft 160 kts 99°
2026-05-06 14:10 38.91500 16.15804 1168 ft 159 kts 97°
2026-05-06 14:10 38.91362 16.17214 909 ft 161 kts 100°
2026-05-06 14:11 38.91191 16.18627 815 ft 162 kts 100°
2026-05-06 14:11 38.91031 16.20042 587 ft 158 kts 99°
2026-05-06 14:11 38.90865 16.21410 353 ft 154 kts 98°
2026-05-06 14:11 38.90712 16.22734 141 ft 147 kts 97°
2026-05-06 14:12 38.90567 16.23996 55 ft 145 kts 99°
2026-05-06 14:12 38.90393 16.25404 588 ft 169 kts 99°
2026-05-06 14:12 38.90126 16.26897 1498 ft 174 kts 105°
2026-05-06 14:12 38.89819 16.28477 2094 ft 192 kts 105°
2026-05-06 14:13 38.89492 16.30220 2539 ft 206 kts 105°
2026-05-06 14:13 38.89156 16.32056 3121 ft 215 kts 104°
2026-05-06 14:13 38.88818 16.33936 3827 ft 217 kts 104°
2026-05-06 14:13 38.88479 16.35841 4513 ft 222 kts 104°
2026-05-06 14:14 38.88129 16.37813 4939 ft 230 kts 104°
2026-05-06 14:14 38.87776 16.39817 5017 ft 230 kts 104°
2026-05-06 14:14 38.87422 16.41824 5020 ft 231 kts 104°
2026-05-06 14:14 38.87071 16.43818 5038 ft 228 kts 103°
2026-05-06 14:15 38.86725 16.45786 5044 ft 224 kts 104°
2026-05-06 14:15 38.86383 16.47731 5053 ft 223 kts 103°
2026-05-06 14:15 38.86039 16.49674 5067 ft 224 kts 104°
2026-05-06 14:15 38.85695 16.51619 5072 ft 223 kts 105°
2026-05-06 14:16 38.85352 16.53558 5082 ft 222 kts 104°
2026-05-06 14:16 38.85009 16.55494 5087 ft 222 kts 104°
2026-05-06 14:16 38.84572 16.57353 5084 ft 212 kts 122°
2026-05-06 14:16 38.83538 16.58597 5097 ft 204 kts 160°
2026-05-06 14:17 38.82184 16.58786 5092 ft 195 kts 196°
2026-05-06 14:17 38.81072 16.57889 5087 ft 196 kts 232°
2026-05-06 14:17 38.80567 16.56266 4937 ft 201 kts 264°
2026-05-06 14:17 38.80822 16.54485 4680 ft 204 kts 297°
2026-05-06 14:18 38.81632 16.53006 4480 ft 207 kts 305°
2026-05-06 14:18 38.82500 16.51545 4166 ft 205 kts 305°
2026-05-06 14:18 38.83364 16.50122 3884 ft 199 kts 306°
2026-05-06 14:18 38.84201 16.48722 3601 ft 196 kts 305°
2026-05-06 14:19 38.85011 16.47320 3392 ft 195 kts 304°
2026-05-06 14:19 38.85820 16.45914 3037 ft 195 kts 305°
2026-05-06 14:19 38.86613 16.44539 2787 ft 190 kts 305°
2026-05-06 14:19 38.87328 16.43153 2689 ft 185 kts 292°
2026-05-06 14:20 38.87702 16.41590 2588 ft 184 kts 282°
2026-05-06 14:20 38.88012 16.40002 2353 ft 185 kts 282°
2026-05-06 14:20 38.88334 16.38396 2084 ft 187 kts 283°
2026-05-06 14:20 38.88745 16.36814 1798 ft 185 kts 291°
2026-05-06 14:21 38.89236 16.35351 1594 ft 169 kts 288°
2026-05-06 14:21 38.89448 16.33945 1291 ft 155 kts 276°
2026-05-06 14:21 38.89570 16.32629 1037 ft 147 kts 274°
2026-05-06 14:21 38.89708 16.31357 825 ft 143 kts 277°
2026-05-06 14:22 38.89858 16.30104 652 ft 140 kts 278°
2026-05-06 14:22 38.90004 16.28896 520 ft 135 kts 278°
2026-05-06 14:22 38.90132 16.27683 368 ft 139 kts 280°
2026-05-06 14:22 38.90279 16.26453 173 ft 138 kts 278°
2026-05-06 14:23 38.90415 16.25299 48 ft 120 kts 279°
2026-05-06 14:23 38.90519 16.24408 44 ft 81 kts 278°
2026-05-06 14:23 38.90574 16.23949 44 ft 41 kts 278°
2026-05-06 14:23 38.90619 16.23691 45 ft 23 kts 301°
2026-05-06 14:24 38.90692 16.23565 45 ft 17 kts 310°
2026-05-06 14:24 38.90771 16.23487 45 ft 15 kts 354°
2026-05-06 14:24 38.90840 16.23572 41 ft 14 kts 84°
2026-05-06 14:24 38.90824 16.23703 45 ft 18 kts 98°
2026-05-06 14:25 38.90805 16.23864 45 ft 18 kts 98°
2026-05-06 14:25 38.90790 16.24007 44 ft 15 kts 98°
2026-05-06 14:25 38.90776 16.24131 44 ft 10 kts 95°
2026-05-06 14:25 38.90805 16.24203 45 ft 9 kts 49°
2026-05-06 14:26 38.90824 16.24289 45 ft 11 kts 94°
2026-05-06 14:26 38.90817 16.24360 45 ft 4 kts 97°
2026-05-06 14:26 38.90814 16.24389 45 ft 3 kts 97°
2026-05-06 14:26 38.90812 16.24410 45 ft 2 kts 97°
2026-05-06 14:27 38.90820 16.24423 45 ft 2 kts 32°
2026-05-06 14:27 38.90851 16.24431 45 ft 6 kts
2026-05-06 14:27 38.90874 16.24436 45 ft 2 kts 20°
2026-05-06 14:27 38.90878 16.24444 45 ft 1 kts 56°
2026-05-06 14:28 38.90879 16.24446 45 ft 0 kts 56°